User: anonymous   Login
Location: Unspecified
(0.0000°N, 0.0000°E)
Time: 19:21:01
(UTC+00:00)
Language:

COSMOS 2501 (GLONASS) - Orbit

View from above orbital plane
View from above orbital plane
View from above satellite
View from above satellite

Ground track
Ground track

The orbit data is extracted from the following two-line orbital elements,

1 40315U 14075A   18140.28865909 -.00000001  00000-0  00000+0 0  9992
2 40315  64.2372 293.5077 0014881 203.0418 325.8953  2.13098657 26994
Epoch (UTC): 20 May 2018 06:55:40
Eccentricity: 0.0014881
inclination: 64.2372°
perigee height: 19092 km
apogee height: 19168 km
right ascension of ascending node: 293.5077°
argument of perigee: 203.0418°
revolutions per day: 2.13098657
mean anomaly at epoch: 325.8953°
orbit number at epoch: 2699

The dashed part of the orbit path shows where the satellite is in the earth's shadow,  

DLR